OAL017 LTBJ-LGTS

Flight info

Callsign OAL017
Flight time 0h 47m
Altitude 32000
Route VEXOL UG802 NEMIS UG18 GIKAS UN133 PEREN G12 ARNAS
Aircraft B737/M-SDE2E3FGHIRWXY/LB1

Departure

Time 2026-04-28 23:05
Airport Adnan Menderes International Airport (LTBJ)

Arrival

Time 2026-04-28 23:52
Airport Thessaloniki Macedonia International Airport (LGTS)
Time Latitude Longitude Altitude Speed Heading
2026-04-28 23:00 38.28598 27.15310 418 ft 0 kts 256°
2026-04-28 23:01 38.28600 27.15319 408 ft 4 kts 256°
2026-04-28 23:01 38.28607 27.15354 407 ft 4 kts 256°
2026-04-28 23:01 38.28613 27.15389 409 ft 4 kts 245°
2026-04-28 23:01 38.28634 27.15410 409 ft 4 kts 170°
2026-04-28 23:02 38.28636 27.15410 409 ft 0 kts 165°
2026-04-28 23:02 38.28630 27.15412 409 ft 2 kts 165°
2026-04-28 23:02 38.28583 27.15429 411 ft 15 kts 165°
2026-04-28 23:02 38.28426 27.15476 413 ft 31 kts 167°
2026-04-28 23:03 38.28172 27.15547 410 ft 44 kts 167°
2026-04-28 23:03 38.27906 27.15632 411 ft 25 kts 165°
2026-04-28 23:03 38.27768 27.15730 418 ft 20 kts 91°
2026-04-28 23:03 38.27805 27.15968 416 ft 34 kts 78°
2026-04-28 23:04 38.27816 27.16036 416 ft 0 kts 78°
2026-04-28 23:04 38.27859 27.16111 413 ft 3 kts 348°
2026-04-28 23:04 38.27894 27.16102 413 ft 12 kts 346°
2026-04-28 23:05 38.28150 27.16020 415 ft 72 kts 347°
2026-04-28 23:05 38.28852 27.15812 418 ft 131 kts 347°
2026-04-28 23:05 38.29880 27.15489 722 ft 150 kts 345°
2026-04-28 23:05 38.30897 27.15133 1286 ft 162 kts 346°
2026-04-28 23:06 38.32017 27.14778 2343 ft 160 kts 349°
2026-04-28 23:06 38.33016 27.14460 3462 ft 147 kts 352°
2026-04-28 23:06 38.34115 27.14167 3832 ft 178 kts 352°
2026-04-28 23:06 38.35440 27.13800 4123 ft 211 kts 350°
2026-04-28 23:07 38.36957 27.13274 4475 ft 240 kts 337°
2026-04-28 23:07 38.38243 27.11897 5247 ft 253 kts 309°
2026-04-28 23:07 38.38972 27.09774 5973 ft 272 kts 285°
2026-04-28 23:07 38.39036 27.07313 6828 ft 282 kts 270°
2026-04-28 23:08 38.38910 27.04800 7764 ft 285 kts 269°
2026-04-28 23:08 38.38779 27.02269 8756 ft 287 kts 269°
2026-04-28 23:08 38.38650 26.99714 9762 ft 290 kts 269°
2026-04-28 23:08 38.38529 26.97123 10548 ft 300 kts 269°
2026-04-28 23:09 38.38405 26.94341 10804 ft 329 kts 269°
2026-04-28 23:09 38.38273 26.91347 11343 ft 344 kts 268°
2026-04-28 23:09 38.38135 26.88285 12202 ft 348 kts 268°
2026-04-28 23:09 38.37994 26.85207 13195 ft 348 kts 268°
2026-04-28 23:10 38.37853 26.82119 14187 ft 349 kts 268°
2026-04-28 23:10 38.37711 26.79014 15028 ft 354 kts 268°
2026-04-28 23:10 38.37567 26.75851 15862 ft 359 kts 268°
2026-04-28 23:10 38.37420 26.72657 16734 ft 363 kts 269°
2026-04-28 23:11 38.37271 26.69426 17597 ft 367 kts 269°
2026-04-28 23:11 38.37120 26.66156 18454 ft 371 kts 269°
2026-04-28 23:11 38.36965 26.62857 19198 ft 374 kts 269°
2026-04-28 23:11 38.36809 26.59528 19924 ft 379 kts 269°
2026-04-28 23:12 38.36650 26.56158 20629 ft 383 kts 269°
2026-04-28 23:12 38.36487 26.52751 21338 ft 387 kts 269°
2026-04-28 23:12 38.36322 26.49306 22045 ft 391 kts 269°
2026-04-28 23:12 38.36154 26.45831 22738 ft 395 kts 269°
2026-04-28 23:13 38.35983 26.42323 23411 ft 399 kts 269°
2026-04-28 23:13 38.35810 26.38781 23978 ft 403 kts 269°
2026-04-28 23:13 38.35635 26.35208 24552 ft 406 kts 269°
2026-04-28 23:13 38.35457 26.31608 25114 ft 408 kts 269°
2026-04-28 23:14 38.35277 26.27986 25660 ft 411 kts 269°
2026-04-28 23:14 38.35094 26.24337 26188 ft 414 kts 269°
2026-04-28 23:14 38.34910 26.20670 26730 ft 416 kts 269°
2026-04-28 23:14 38.34827 26.16975 27239 ft 418 kts 272°
2026-04-28 23:15 38.34880 26.13265 27726 ft 420 kts 276°
2026-04-28 23:15 38.35139 26.09543 28205 ft 423 kts 278°
2026-04-28 23:15 38.35445 26.05812 28719 ft 424 kts 278°
2026-04-28 23:15 38.35746 26.02084 29407 ft 422 kts 278°
2026-04-28 23:16 38.36024 25.98431 30176 ft 418 kts 277°
2026-04-28 23:16 38.36293 25.94714 30799 ft 415 kts 277°
2026-04-28 23:16 38.36550 25.91063 31365 ft 413 kts 277°
2026-04-28 23:16 38.36799 25.87481 31894 ft 411 kts 277°
2026-04-28 23:17 38.37052 25.83847 32043 ft 411 kts 279°
2026-04-28 23:17 38.37796 25.80379 32070 ft 405 kts 296°
2026-04-28 23:17 38.39231 25.77297 32076 ft 406 kts 308°
2026-04-28 23:17 38.41210 25.74737 32078 ft 407 kts 321°
2026-04-28 23:18 38.45755 25.70417 32074 ft 408 kts 322°
2026-04-28 23:18 38.50293 25.66047 32069 ft 408 kts 322°
2026-04-28 23:19 38.54797 25.61647 32070 ft 407 kts 322°
2026-04-28 23:19 38.59284 25.57245 32080 ft 406 kts 322°
2026-04-28 23:20 38.63762 25.52845 32072 ft 406 kts 322°
2026-04-28 23:20 38.67476 25.49192 32089 ft 405 kts 321°
2026-04-28 23:21 38.72686 25.44059 32079 ft 404 kts 321°
2026-04-28 23:21 38.76382 25.40414 32081 ft 403 kts 321°
2026-04-28 23:22 38.80823 25.36026 32083 ft 403 kts 321°
2026-04-28 23:22 38.85260 25.31635 32080 ft 403 kts 321°
2026-04-28 23:23 38.89705 25.27229 32088 ft 404 kts 321°
2026-04-28 23:23 38.94153 25.22812 32093 ft 404 kts 321°
2026-04-28 23:24 38.98608 25.18382 32095 ft 405 kts 321°
2026-04-28 23:24 39.03038 25.13969 32095 ft 405 kts 321°
2026-04-28 23:25 39.07498 25.09520 32095 ft 405 kts 321°
2026-04-28 23:25 39.11957 25.05064 32094 ft 405 kts 321°
2026-04-28 23:26 39.16406 25.00610 32097 ft 405 kts 321°
2026-04-28 23:26 39.20851 24.96154 32099 ft 405 kts 321°
2026-04-28 23:27 39.25290 24.91692 32104 ft 405 kts 321°
2026-04-28 23:27 39.29729 24.87220 32099 ft 405 kts 321°
2026-04-28 23:28 39.34162 24.82746 32103 ft 404 kts 321°
2026-04-28 23:28 39.38594 24.78266 32104 ft 404 kts 321°
2026-04-28 23:29 39.43023 24.73781 32107 ft 404 kts 321°
2026-04-28 23:29 39.47452 24.69290 32107 ft 404 kts 321°
2026-04-28 23:30 39.52128 24.65251 32108 ft 407 kts 332°
2026-04-28 23:30 39.56778 24.61362 31579 ft 392 kts 314°
2026-04-28 23:31 39.58592 24.58707 30772 ft 396 kts 307°
2026-04-28 23:31 39.60097 24.55691 29930 ft 401 kts 301°
2026-04-28 23:31 39.61519 24.52580 29262 ft 399 kts 301°
2026-04-28 23:31 39.62909 24.49549 28758 ft 394 kts 301°
2026-04-28 23:32 39.64304 24.46516 28232 ft 389 kts 301°
2026-04-28 23:32 39.65673 24.43552 27511 ft 379 kts 301°
2026-04-28 23:32 39.67026 24.40629 26558 ft 377 kts 301°
2026-04-28 23:32 39.68376 24.37713 25629 ft 376 kts 301°
2026-04-28 23:33 39.69715 24.34824 24827 ft 372 kts 301°
2026-04-28 23:33 39.71040 24.31960 24051 ft 367 kts 301°
2026-04-28 23:33 39.72337 24.29157 23522 ft 357 kts 301°
2026-04-28 23:33 39.73614 24.26396 22976 ft 355 kts 301°
2026-04-28 23:34 39.74881 24.23653 22491 ft 353 kts 301°
2026-04-28 23:34 39.76137 24.20930 22018 ft 350 kts 301°
2026-04-28 23:34 39.77383 24.18230 21554 ft 347 kts 301°
2026-04-28 23:34 39.78619 24.15546 21098 ft 345 kts 301°
2026-04-28 23:35 39.79845 24.12881 20638 ft 343 kts 301°
2026-04-28 23:35 39.81068 24.10222 20173 ft 341 kts 301°
2026-04-28 23:35 39.82280 24.07586 19739 ft 337 kts 301°
2026-04-28 23:35 39.83472 24.04989 19304 ft 331 kts 301°
2026-04-28 23:36 39.84642 24.02438 18876 ft 326 kts 301°
2026-04-28 23:36 39.85801 23.99908 18457 ft 325 kts 301°
2026-04-28 23:36 39.86959 23.97382 17963 ft 325 kts 301°
2026-04-28 23:36 39.88121 23.94841 17516 ft 331 kts 301°
2026-04-28 23:37 39.89312 23.92238 17066 ft 337 kts 301°
2026-04-28 23:37 39.90502 23.89633 16603 ft 332 kts 301°
2026-04-28 23:37 39.91656 23.87104 16159 ft 326 kts 301°
2026-04-28 23:37 39.92799 23.84596 15730 ft 319 kts 301°
2026-04-28 23:38 39.93922 23.82131 15314 ft 313 kts 302°
2026-04-28 23:38 39.95025 23.79709 14889 ft 308 kts 302°
2026-04-28 23:38 39.96111 23.77322 14498 ft 305 kts 302°
2026-04-28 23:38 39.97190 23.74950 14100 ft 305 kts 302°
2026-04-28 23:39 39.98272 23.72568 13670 ft 307 kts 302°
2026-04-28 23:39 39.99376 23.70139 13221 ft 314 kts 302°
2026-04-28 23:39 40.00491 23.67682 12764 ft 314 kts 302°
2026-04-28 23:39 40.01592 23.65252 12328 ft 308 kts 302°
2026-04-28 23:40 40.02670 23.62870 11906 ft 302 kts 302°
2026-04-28 23:40 40.03727 23.60532 11487 ft 297 kts 302°
2026-04-28 23:40 40.04770 23.58225 11080 ft 292 kts 302°
2026-04-28 23:40 40.05801 23.55946 10675 ft 293 kts 302°
2026-04-28 23:41 40.06827 23.53673 10507 ft 288 kts 302°
2026-04-28 23:41 40.07843 23.51421 10366 ft 288 kts 302°
2026-04-28 23:41 40.08845 23.49198 10231 ft 279 kts 302°
2026-04-28 23:41 40.09806 23.47064 10089 ft 267 kts 302°
2026-04-28 23:42 40.10741 23.44986 9770 ft 263 kts 302°
2026-04-28 23:42 40.11657 23.42950 9472 ft 258 kts 302°
2026-04-28 23:42 40.12560 23.40944 9179 ft 254 kts 301°
2026-04-28 23:42 40.13449 23.38967 8890 ft 251 kts 301°
2026-04-28 23:43 40.14331 23.37004 8598 ft 249 kts 301°
2026-04-28 23:43 40.15207 23.35051 8320 ft 250 kts 301°
2026-04-28 23:43 40.16100 23.33063 8033 ft 257 kts 301°
2026-04-28 23:43 40.17018 23.31015 7721 ft 264 kts 301°
2026-04-28 23:44 40.17944 23.28947 7394 ft 262 kts 300°
2026-04-28 23:44 40.18856 23.26909 7071 ft 258 kts 300°
2026-04-28 23:44 40.19757 23.24894 6764 ft 255 kts 300°
2026-04-28 23:44 40.20648 23.22901 6439 ft 253 kts 300°
2026-04-28 23:45 40.21518 23.20953 6122 ft 250 kts 300°
2026-04-28 23:45 40.22385 23.19010 5900 ft 244 kts 300°
2026-04-28 23:45 40.23231 23.17115 5699 ft 237 kts 300°
2026-04-28 23:45 40.24043 23.15293 5582 ft 227 kts 300°
2026-04-28 23:46 40.24826 23.13538 5472 ft 218 kts 300°
2026-04-28 23:46 40.25572 23.11863 5374 ft 209 kts 300°
2026-04-28 23:46 40.26292 23.10247 5296 ft 205 kts 299°
2026-04-28 23:46 40.27013 23.08625 5230 ft 208 kts 299°
2026-04-28 23:47 40.27739 23.06992 5104 ft 206 kts 299°
2026-04-28 23:47 40.28456 23.05380 4892 ft 203 kts 299°
2026-04-28 23:47 40.29359 23.03999 4647 ft 204 kts 330°
2026-04-28 23:47 40.30729 23.03500 4501 ft 207 kts 348°
2026-04-28 23:48 40.32158 23.03127 4278 ft 210 kts 347°
2026-04-28 23:48 40.33585 23.02748 4073 ft 207 kts 348°
2026-04-28 23:48 40.34971 23.02423 3864 ft 196 kts 348°
2026-04-28 23:48 40.36264 23.02069 3657 ft 184 kts 347°
2026-04-28 23:49 40.37473 23.01704 3453 ft 173 kts 346°
2026-04-28 23:49 40.38618 23.01346 3194 ft 167 kts 346°
2026-04-28 23:49 40.39734 23.00994 2921 ft 163 kts 346°
2026-04-28 23:49 40.40798 23.00654 2656 ft 154 kts 346°
2026-04-28 23:50 40.41815 23.00331 2402 ft 148 kts 346°
2026-04-28 23:50 40.42797 23.00020 2169 ft 147 kts 346°
2026-04-28 23:50 40.43809 22.99695 1906 ft 148 kts 346°
2026-04-28 23:50 40.44788 22.99384 1675 ft 147 kts 347°
2026-04-28 23:51 40.45798 22.99063 1414 ft 147 kts 347°
2026-04-28 23:51 40.46762 22.98756 1151 ft 142 kts 346°
2026-04-28 23:51 40.47730 22.98448 924 ft 144 kts 347°
2026-04-28 23:51 40.48682 22.98143 694 ft 138 kts 347°
2026-04-28 23:52 40.49620 22.97847 468 ft 139 kts 347°
2026-04-28 23:52 40.50563 22.97547 216 ft 141 kts 347°
2026-04-28 23:52 40.51516 22.97259 30 ft 138 kts 347°
2026-04-28 23:52 40.52250 22.97022 27 ft 44 kts 347°
2026-04-28 23:53 40.52391 22.96978 27 ft 19 kts 347°
2026-04-28 23:53 40.52515 22.96939 28 ft 18 kts 347°
2026-04-28 23:53 40.52636 22.96919 29 ft 17 kts 19°
2026-04-28 23:53 40.52657 22.97046 28 ft 17 kts 136°
2026-04-28 23:54 40.52574 22.97146 28 ft 16 kts 114°
2026-04-28 23:54 40.52503 22.97256 28 ft 16 kts 136°
2026-04-28 23:54 40.52430 22.97347 27 ft 0 kts 136°